Regional Weather Roundup
Issued by NWS

Home | Current Version | Previous Version | Text Only | Print | Product List | Glossary Off
Versions: 1 2 3 4 5 6 7 8 9 10 11 12 13 14 15 16 17 18 19 20 21 22 23 24 25 26 27 28 29 30 31 32 33 34 35 36 37 38 39 40 41 42 43 44 45 46 47 48 49 50

000
ASUS43 KIND 111959
RWRIN

WEATHER ROUNDUP FOR INDIANA
NATIONAL WEATHER SERVICE INDIANAPOLIS IN
400 PM EDT FRI JUL 11 2014

NOTE: "FAIR" INDICATES FEW OR NO CLOUDS BELOW 12,000 FEET WITH NO
SIGNIFICANT WEATHER AND/OR OBSTRUCTIONS TO VISIBILITY.

* - STATION DOES NOT REPORT WEATHER SUCH AS PRECIPITATION OR FOG.

+ - STATION NOT QUALITY CONTROLLED BY THE NATIONAL WEATHER SERVICE.
    USE DATA WITH CAUTION...ESPECIALLY DEWPOINT AND RELATIVE
    HUMIDITY OBSERVATIONS.

INZ001>003-010>013-019-020-112100-
NORTHWEST INDIANA

CITY           SKY/WX    TMP DP  RH WIND       PRES   REMARKS
GARY /AIRPORT/ MOSUNNY   81  48  32 SE9       30.17F
KNOX *+        SUNNY     80  53  38 CALM      30.17F
MONTICELLO +   MOSUNNY   80  59  49 SW5       30.17F
RENSSELAER +   SUNNY     79  57  47 S5        30.17F
VALPARAISO     SUNNY     80  52  37 S8        30.18F

$$

LMZ046-743>745-112100-
SOUTHERN LAKE MICHIGAN

STATION/POSITION TIME  TEMP WIND        PRES
                       AIR  DIR/SP/G
                 (UTC) (F)  (DEG/KT/KT) (MB)
BURNS HARBOR     1900   80  170/  4/ 12 1022.4S
MICHIGAN CITY    1900   74  350/  7/  8   N/A

$$

INZ004-005-014>016-021>024-112100-
NORTH CENTRAL INDIANA

CITY           SKY/WX    TMP DP  RH WIND       PRES   REMARKS
GOSHEN         SUNNY     79  57  46 SE8       30.18F
SOUTH BEND     SUNNY     80  55  42 VRB5      30.18F
WARSAW +       SUNNY     79  52  38 S5        30.19F

$$

INZ006>009-017-018-025>027-112100-
NORTHEAST INDIANA

CITY           SKY/WX    TMP DP  RH WIND       PRES   REMARKS
ANGOLA *+      SUNNY     81  57  44 SW9       30.19F
FORT WAYNE     PTSUNNY   80  53  39 SW8       30.19F

$$

INZ028-029-035-036-043>045-051>053-112100-
WEST CENTRAL INDIANA

CITY           SKY/WX    TMP DP  RH WIND       PRES   REMARKS
GREENCASTLE +  PTSUNNY   81  61  50 S5        30.19F
LAFAYETTE      SUNNY     81  56  42 VRB5      30.17F
TERRE HAUTE    SUNNY     82  58  43 CALM      30.17F

$$

INZ030>032-037>040-046>048-054>057-064-065-112100-
CENTRAL INDIANA

CITY           SKY/WX    TMP DP  RH WIND       PRES   REMARKS
ANDERSON       SUNNY     81  52  36 CALM      30.20F
COLUMBUS       PTSUNNY   81  57  44 E5        30.18F
INDIANAPOLIS   MOSUNNY   80  56  43 VRB5      30.18F
-EAGLE CREEK   SUNNY     81  53  37 SW3       30.17F
KOKOMO *+      SUNNY     81  55  41 S10       30.18F
MT COMFORT *+  SUNNY     81  57  44 SE6       30.19F
SHELBYVILLE    MOSUNNY   84  60  44 SE7       30.19F

$$

INZ033-034-041-042-049-050-058-059-112100-
EAST CENTRAL INDIANA

CITY           SKY/WX    TMP DP  RH WIND       PRES   REMARKS
MUNCIE         SUNNY     81  53  37 MISG      30.19F

$$

INZ060-061-067>069-081>083-085>088-112100-
SOUTHWEST INDIANA

CITY           SKY/WX    TMP DP  RH WIND       PRES   REMARKS
EVANSVILLE     SUNNY     86  58  38 W5        30.16F
HUNTINGBURG *+ SUNNY     86  57  37 CALM      30.17F

$$

INZ062-063-066-070>080-084-089>092-112100-
SOUTH CENTRAL AND SOUTHEAST INDIANA

CITY           SKY/WX    TMP DP  RH WIND       PRES   REMARKS
BLOOMINGTON    SUNNY     82  54  37 CALM      30.18F
SEYMOUR +      SUNNY     81  36  19 E3        30.18

$$



USA.gov is the U.S. government's official web portal to all federal, state and local government web resources and services.